Weather History for Yellowstone, WY

Change the Weather History Date:

Monday, November 4, 2013

  Actual Average Record
Temperature  
Mean Temperature 11 °F 28 °F  
Max Temperature 22 °F 39 °F 48 °F (2010)
Min Temperature -1 °F 17 °F -8 °F (2003)
Degree Days  
Heating Degree Days 54 37  
Month to date heating degree days 170 146  
Since 1 July heating degree days 2136 2194  
Cooling Degree Days 0 0  
Month to date cooling degree days 0 0  
Year to date cooling degree days 0 0  
Moisture  
Dew Point 6 °F    
Average Humidity 82    
Maximum Humidity 95    
Minimum Humidity 68    
Precipitation  
Precipitation 0.06 in 0.07 in 0.47 in (2008)
Month to date precipitation 0.63 0.29  
Year to date precipitation 18.49 17.01  
Sea Level Pressure  
Sea Level Pressure 30.13 in    
Wind  
Wind Speed 3 mph (WNW)    
Max Wind Speed 12 mph    
Max Gust Speed 20 mph    
T = Trace of Precipitation, MM = Missing Value Source: NWS Daily Summary

Daily Weather History Graph

Daily Weather History Graph

Search for Another Location

Airport:

Trip Planner

Search our weather history database for the weather conditions in past years. The results will help you decide how hot, cold, wet, or windy it might be!

Date:

Astronomy

Nov. 04, 2013 Rise Set
Actual Time 7:03 AM MST 5:06 PM MST
Civil Twilight 6:33 AM MST 5:36 PM MST
Nautical Twilight 5:58 AM MST 6:11 PM MST
Astronomical Twilight 5:24 AM MST 6:45 PM MST
Moon 8:20 AM MST (11/4) 6:11 PM MST (11/4)
Length of Visible Light 11h 03m
Length of Day
10h 02m
New Moon, 2% of the Moon is Illuminated
Nov 4
New Moon
Nov 9
First Quarter
Nov 17
Full
Nov 25
Last Quarter
Dec 2
New

Hourly Weather History & Observations

Time (MST) Temp. Windchill Dew Point Humidity Pressure Visibility Wind Dir Wind Speed Gust Speed Precip Events Conditions
12:56 AM 3.9 °F - 1.0 °F 88% 30.10 in - Calm Calm - N/A   Unknown
1:56 AM 3.9 °F - -0.0 °F 84% 30.09 in - Calm Calm - N/A   Unknown
2:56 AM 3.9 °F -5.3 °F 1.0 °F 88% 30.10 in - NW 4.6 mph - N/A   Unknown
3:56 AM 8.1 °F 1.4 °F 5.0 °F 87% 30.06 in - NW 3.5 mph - N/A   Unknown
4:56 AM 9.0 °F 2.4 °F 6.1 °F 88% 30.06 in - WNW 3.5 mph - N/A   Unknown
5:56 AM 8.1 °F -0.5 °F 6.1 °F 92% 30.10 in - WNW 4.6 mph - N/A   Unknown
6:56 AM 10.9 °F - 9.0 °F 92% 30.09 in - Calm Calm - N/A   Unknown
7:56 AM 12.9 °F - 10.0 °F 88% 30.10 in - Calm Calm - 0.01 in   Unknown
8:56 AM 16.0 °F 7.4 °F 12.0 °F 84% 30.12 in - Variable 5.8 mph - N/A   Unknown
9:56 AM 19.9 °F 14.9 °F 12.0 °F 71% 30.10 in - Variable 3.5 mph - N/A   Unknown
10:56 AM 21.9 °F 13.4 °F 12.9 °F 68% 30.10 in - Variable 6.9 mph - N/A   Unknown
11:56 AM 21.0 °F 14.6 °F 12.9 °F 71% 30.08 in - Variable 4.6 mph - N/A   Unknown
12:56 PM 18.0 °F 12.7 °F 15.1 °F 88% 30.10 in - Variable 3.5 mph - 0.02 in   Unknown
1:56 PM 19.9 °F 13.4 °F 12.9 °F 74% 30.08 in - West 4.6 mph - 0.02 in   Unknown
2:56 PM 18.0 °F 5.4 °F 12.0 °F 78% 30.10 in - West 11.5 mph 19.6 mph N/A   Unknown
3:56 PM 17.1 °F 11.7 °F 10.0 °F 74% 30.10 in - Variable 3.5 mph - 0.01 in   Unknown
4:56 PM 15.1 °F - 9.0 °F 77% 30.13 in - Calm Calm - N/A   Unknown
5:56 PM 10.0 °F - 7.0 °F 87% 30.19 in - Calm Calm - N/A   Unknown
6:56 PM 7.0 °F 0.1 °F 3.9 °F 87% 30.20 in - WNW 3.5 mph - N/A   Unknown
7:56 PM 3.0 °F - -0.0 °F 87% 30.23 in - Calm Calm - N/A   Unknown
8:56 PM 1.0 °F -6.7 °F -2.0 °F 87% 30.23 in - WNW 3.5 mph - N/A   Unknown
9:56 PM 1.9 °F -5.6 °F -2.0 °F 83% 30.22 in - NW 3.5 mph - N/A   Unknown
10:56 PM 1.9 °F - -0.9 °F 88% 30.21 in - Calm Calm - N/A   Unknown
11:56 PM -0.9 °F - -4.0 °F 87% 30.25 in - Calm Calm - N/A   Unknown